Algorta, Spain
Current Conditions -  °F | °C
As of 11:30 AM on Saturday 22 Nov 2014 (Local Time) from LEBB Reporting Station
Clear Clear  
Wind Chill: 64°   Ceiling: Unl
Heat Index: 64°   Visibility: 6mi
Dew Point: 55°   Wind: 7mph
Humidity: 73%   Direction: 110°ESE
Pressure: 29.91"   Gusts: NA
Location:  43.35°N, 3.01°W
Report Text: LEBB 221030Z 11006KT CAVOK 18/13 Q1013 NOSIG
Loading
Personal Weather Stations






























Interactive Weather Map New forecast layout! Learn more

10-Day Weather Forecast

Advertisements
Track Severe Weather on mobile